When you browse on this site, cookies collect data to enhance your experience and personalize the content and advertising you see.
Visit our Privacy Policy to learn more. By continuing to use the site, you agree to this use of cookies and data.
  • In Czech Republic
  • List of Countries
  • For 7 days
  • Water Temperature
  • Weather Map
  • Weather Widgets
  • user-avatar
    Login

    Hourly Weather Kandi

    Today, 6 June, Saturday

    Time Temperature Precipitation Wind Pressure Humidity
    00:00 +31°C° 0.1 mm 2 mps 737 mmHg 62%
    01:00 +30°C° 0.2 mm 2 mps 737 mmHg 64%
    02:00 +30°C° 0.2 mm 2 mps 737 mmHg 67%
    03:00 +30°C° 0.2 mm 2 mps 737 mmHg 69%
    04:00 +29°C° 0.4 mm 2 mps 737 mmHg 72%
    05:00 +29°C° 0.4 mm 2 mps 738 mmHg 74%
    06:00 +28°C° 0.4 mm 2 mps 738 mmHg 77%
    07:00 +29°C° 0 mm 2 mps 738 mmHg 71%
    08:00 +31°C° 0 mm 3 mps 739 mmHg 66%
    09:00 +33°C° 0 mm 3 mps 739 mmHg 60%
    10:00 +35°C° 0 mm 3 mps 739 mmHg 54%
    11:00 +37°C° 0 mm 3 mps 738 mmHg 47%
    12:00 +39°C° 0 mm 3 mps 738 mmHg 41%
    13:00 +39°C° 0 mm 2 mps 737 mmHg 38%
    14:00 +40°C° 0 mm 2 mps 736 mmHg 36%
    15:00 +40°C° 0 mm 2 mps 736 mmHg 33%
    16:00 +39°C° 0 mm 2 mps 736 mmHg 36%
    17:00 +38°C° 0 mm 2 mps 736 mmHg 39%
    18:00 +37°C° 0 mm 2 mps 736 mmHg 42%
    19:00 +35°C° 0.1 mm 2 mps 736 mmHg 48%
    20:00 +34°C° 0.1 mm 3 mps 737 mmHg 53%
    21:00 +31°C° 0.1 mm 3 mps 737 mmHg 59%
    22:00 +31°C° 0.5 mm 2 mps 737 mmHg 65%
    23:00 +30°C° 0.5 mm 2 mps 737 mmHg 71%

    Tomorrow, 7 June, Sunday

    Time Temperature Precipitation Wind Pressure Humidity
    00:00 +29°C° 0.5 mm 1 mps 737 mmHg 77%
    01:00 +28°C° 2.6 mm 1 mps 738 mmHg 80%
    02:00 +28°C° 2.6 mm 1 mps 738 mmHg 82%
    03:00 +27°C° 2.6 mm 2 mps 738 mmHg 85%
    04:00 +27°C° 0 mm 2 mps 738 mmHg 85%
    05:00 +27°C° 0 mm 3 mps 738 mmHg 85%
    06:00 +27°C° 0 mm 3 mps 738 mmHg 85%
    07:00 +28°C° 0 mm 3 mps 739 mmHg 80%
    08:00 +29°C° 0 mm 3 mps 739 mmHg 75%
    09:00 +30°C° 0 mm 3 mps 740 mmHg 69%
    10:00 +33°C° 0 mm 3 mps 739 mmHg 62%
    11:00 +35°C° 0 mm 3 mps 739 mmHg 55%
    12:00 +37°C° 0 mm 3 mps 738 mmHg 48%
    13:00 +37°C° 0 mm 3 mps 737 mmHg 45%
    14:00 +38°C° 0 mm 2 mps 737 mmHg 42%
    15:00 +39°C° 0 mm 2 mps 736 mmHg 39%
    16:00 +38°C° 0 mm 2 mps 736 mmHg 43%
    17:00 +36°C° 0 mm 1 mps 736 mmHg 46%
    18:00 +35°C° 0 mm 1 mps 736 mmHg 49%
    19:00 +33°C° 0.3 mm 1 mps 736 mmHg 55%
    20:00 +32°C° 0.3 mm 2 mps 737 mmHg 61%
    21:00 +31°C° 0.3 mm 2 mps 737 mmHg 66%
    22:00 +30°C° 0 mm 2 mps 737 mmHg 69%
    23:00 +30°C° 0 mm 2 mps 737 mmHg 71%

    Day after tomorrow, 8 June, Monday

    Time Temperature Precipitation Wind Pressure Humidity
    00:00 +30°C° 0 mm 2 mps 737 mmHg 74%
    01:00 +29°C° 0 mm 2 mps 736 mmHg 75%
    02:00 +29°C° 0 mm 3 mps 736 mmHg 76%
    03:00 +29°C° 0 mm 3 mps 736 mmHg 76%
    04:00 +28°C° 1.2 mm 3 mps 736 mmHg 78%
    05:00 +28°C° 1.2 mm 3 mps 737 mmHg 80%
    06:00 +28°C° 1.2 mm 4 mps 737 mmHg 82%
    07:00 +29°C° 0 mm 4 mps 737 mmHg 76%
    08:00 +30°C° 0 mm 4 mps 738 mmHg 70%
    09:00 +33°C° 0 mm 4 mps 738 mmHg 64%
    10:00 +34°C° 0 mm 4 mps 737 mmHg 59%
    11:00 +35°C° 0 mm 3 mps 737 mmHg 54%
    12:00 +36°C° 0 mm 3 mps 737 mmHg 49%
    13:00 +37°C° 0 mm 3 mps 736 mmHg 47%
    14:00 +38°C° 0 mm 3 mps 736 mmHg 45%
    15:00 +38°C° 0 mm 3 mps 735 mmHg 43%
    16:00 +37°C° 0.1 mm 2 mps 735 mmHg 48%
    17:00 +35°C° 0.1 mm 2 mps 735 mmHg 54%
    18:00 +34°C° 0.1 mm 2 mps 735 mmHg 59%
    19:00 +32°C° 0.3 mm 2 mps 735 mmHg 63%
    20:00 +31°C° 0.3 mm 2 mps 736 mmHg 67%
    21:00 +30°C° 0.3 mm 2 mps 736 mmHg 71%
    22:00 +30°C° 0 mm 2 mps 736 mmHg 72%
    23:00 +29°C° 0 mm 2 mps 736 mmHg 74%

    9 June, Tuesday

    Time Temperature Precipitation Wind Pressure Humidity
    00:00 +29°C° 0 mm 2 mps 736 mmHg 75%
    01:00 +29°C° 0 mm 2 mps 736 mmHg 76%
    02:00 +28°C° 0 mm 2 mps 736 mmHg 77%
    03:00 +28°C° 0 mm 2 mps 736 mmHg 77%
    04:00 +28°C° 0 mm 2 mps 736 mmHg 77%
    05:00 +28°C° 0 mm 3 mps 736 mmHg 77%
    06:00 +27°C° 0 mm 3 mps 736 mmHg 76%
    07:00 +29°C° 0 mm 3 mps 737 mmHg 72%
    08:00 +30°C° 0 mm 3 mps 737 mmHg 68%
    09:00 +32°C° 0 mm 4 mps 737 mmHg 64%
    10:00 +34°C° 0 mm 3 mps 737 mmHg 58%
    11:00 +36°C° 0 mm 3 mps 736 mmHg 51%
    12:00 +38°C° 0 mm 3 mps 736 mmHg 45%
    13:00 +38°C° 0 mm 3 mps 736 mmHg 43%
    14:00 +39°C° 0 mm 3 mps 735 mmHg 41%
    15:00 +39°C° 0 mm 3 mps 735 mmHg 39%
    16:00 +38°C° 0 mm 2 mps 735 mmHg 43%
    17:00 +37°C° 0 mm 2 mps 734 mmHg 47%
    18:00 +36°C° 0 mm 2 mps 734 mmHg 51%
    19:00 +35°C° 0 mm 2 mps 735 mmHg 54%
    20:00 +34°C° 0 mm 2 mps 736 mmHg 58%
    21:00 +32°C° 0 mm 2 mps 736 mmHg 62%
    22:00 +31°C° 0 mm 2 mps 736 mmHg 65%
    23:00 +30°C° 0 mm 2 mps 736 mmHg 68%

    10 June, Wednesday

    Time Temperature Precipitation Wind Pressure Humidity
    00:00 +30°C° 0 mm 3 mps 736 mmHg 71%
    01:00 +29°C° 0.3 mm 3 mps 736 mmHg 73%
    02:00 +29°C° 0.3 mm 3 mps 736 mmHg 76%
    03:00 +28°C° 0.3 mm 3 mps 736 mmHg 78%
    04:00 +28°C° 0 mm 3 mps 736 mmHg 80%
    05:00 +28°C° 0 mm 3 mps 737 mmHg 81%
    06:00 +28°C° 0 mm 3 mps 737 mmHg 82%
    07:00 +29°C° 0 mm 3 mps 737 mmHg 75%
    08:00 +31°C° 0 mm 3 mps 737 mmHg 68%
    09:00 +33°C° 0 mm 3 mps 738 mmHg 61%
    10:00 +35°C° 0 mm 3 mps 737 mmHg 56%
    11:00 +37°C° 0 mm 3 mps 737 mmHg 50%
    12:00 +38°C° 0 mm 3 mps 736 mmHg 44%
    13:00 +39°C° 0 mm 3 mps 736 mmHg 41%
    14:00 +40°C° 0 mm 2 mps 735 mmHg 38%
    15:00 +40°C° 0 mm 2 mps 735 mmHg 35%
    16:00 +39°C° 0 mm 2 mps 735 mmHg 38%
    17:00 +38°C° 0 mm 2 mps 735 mmHg 42%
    18:00 +35°C° 0 mm 1 mps 735 mmHg 46%
    19:00 +34°C° 1 mm 1 mps 735 mmHg 54%
    20:00 +32°C° 1 mm 1 mps 736 mmHg 62%
    21:00 +31°C° 1 mm 1 mps 736 mmHg 71%
    22:00 +30°C° 0.5 mm 1 mps 736 mmHg 73%
    23:00 +30°C° 0.5 mm 2 mps 736 mmHg 76%

    11 June, Thursday

    Time Temperature Precipitation Wind Pressure Humidity
    00:00 +29°C° 0.5 mm 2 mps 737 mmHg 78%
    01:00 +29°C° 0 mm 2 mps 736 mmHg 80%
    02:00 +28°C° 0 mm 3 mps 736 mmHg 82%
    03:00 +28°C° 0 mm 3 mps 736 mmHg 84%
    04:00 +28°C° 0 mm 3 mps 736 mmHg 85%
    05:00 +27°C° 0 mm 3 mps 737 mmHg 86%
    06:00 +27°C° 0 mm 3 mps 737 mmHg 87%
    07:00 +29°C° 0 mm 3 mps 737 mmHg 81%
    08:00 +30°C° 0 mm 3 mps 738 mmHg 76%
    09:00 +32°C° 0 mm 4 mps 738 mmHg 70%
    10:00 +34°C° 0 mm 3 mps 738 mmHg 63%
    11:00 +35°C° 0 mm 3 mps 737 mmHg 57%
    12:00 +37°C° 0 mm 3 mps 736 mmHg 50%
    13:00 +38°C° 0 mm 3 mps 736 mmHg 47%
    14:00 +38°C° 0 mm 2 mps 735 mmHg 45%
    15:00 +39°C° 0 mm 2 mps 735 mmHg 42%
    16:00 +37°C° 0 mm 2 mps 735 mmHg 48%
    17:00 +36°C° 0 mm 3 mps 735 mmHg 54%
    18:00 +34°C° 0 mm 3 mps 735 mmHg 60%
    19:00 +33°C° 0.8 mm 3 mps 735 mmHg 66%
    20:00 +30°C° 0.8 mm 3 mps 736 mmHg 72%
    21:00 +29°C° 0.8 mm 3 mps 736 mmHg 79%
    22:00 +29°C° 0.9 mm 3 mps 736 mmHg 80%
    23:00 +28°C° 0.9 mm 3 mps 736 mmHg 81%
    Show more